owner,sensor,date,latitude,longitude,vertical_datum,sea_water_temperature,qcFlag 
ENP,ioos.station.NOAA.NDBC:LBRF1:1,2017-05-01T00:00:00Z,25.4840,-81.1330,1.0,27.9,11111222 
ENP,ioos.station.NOAA.NDBC:LBRF1:1,2017-05-01T06:00:00Z,25.4840,-81.1330,1.0,27.4,11111222 
ENP,ioos.station.NOAA.NDBC:LBRF1:1,2017-05-01T07:00:00Z,25.4840,-81.1330,1.0,27.39,2 
ENP,ioos.station.NOAA.NDBC:LBRF1:1,2017-05-01T08:00:00Z,25.4840,-81.1330,1.0,27.34,2 
ENP,ioos.station.NOAA.NDBC:LBRF1:1,2017-05-01T10:00:00Z,25.4840,-81.1330,1.0,27.23,2 
ENP,ioos.station.NOAA.NDBC:LBRF1:1,2017-05-01T11:00:00Z,25.4840,-81.1330,1.0,26.9,11111222 
ENP,ioos.station.NOAA.NDBC:LBRF1:1,2017-05-01T12:00:00Z,25.4840,-81.1330,1.0,26.8,11111222 
ENP,ioos.station.NOAA.NDBC:LBRF1:1,2017-05-01T13:00:00Z,25.4840,-81.1330,1.0,26.72,2 
ENP,ioos.station.NOAA.NDBC:LBRF1:1,2017-05-01T14:00:00Z,25.4840,-81.1330,1.0,26.73,2 
ENP,ioos.station.NOAA.NDBC:LBRF1:1,2017-05-01T15:00:00Z,25.4840,-81.1330,1.0,26.88,2 
ENP,ioos.station.NOAA.NDBC:LBRF1:1,2017-05-01T16:00:00Z,25.4840,-81.1330,1.0,27.11,2 
ENP,ioos.station.NOAA.NDBC:LBRF1:1,2017-05-01T17:00:00Z,25.4840,-81.1330,1.0,27.42,2 
ENP,ioos.station.NOAA.NDBC:LBRF1:1,2017-05-01T18:00:00Z,25.4840,-81.1330,1.0,27.71,2 
ENP,ioos.station.NOAA.NDBC:LBRF1:1,2017-05-01T19:00:00Z,25.4840,-81.1330,1.0,27.71,2 
ENP,ioos.station.NOAA.NDBC:LBRF1:1,2017-05-01T21:00:00Z,25.4840,-81.1330,1.0,27.8,11111222 
ENP,ioos.station.NOAA.NDBC:LBRF1:1,2017-05-01T22:00:00Z,25.4840,-81.1330,1.0,28.1,11111222 
ENP,ioos.station.NOAA.NDBC:LBRF1:1,2017-05-01T23:00:00Z,25.4840,-81.1330,1.0,28.27,2 
ENP,ioos.station.NOAA.NDBC:LBRF1:1,2017-05-02T00:00:00Z,25.4840,-81.1330,1.0,28.3,11111222 
ENP,ioos.station.NOAA.NDBC:LBRF1:1,2017-05-02T06:00:00Z,25.4840,-81.1330,1.0,27.53,2 
ENP,ioos.station.NOAA.NDBC:LBRF1:1,2017-05-02T07:00:00Z,25.4840,-81.1330,1.0,27.45,2 
ENP,ioos.station.NOAA.NDBC:LBRF1:1,2017-05-02T08:00:00Z,25.4840,-81.1330,1.0,27.42,2 
ENP,ioos.station.NOAA.NDBC:LBRF1:1,2017-05-02T10:00:00Z,25.4840,-81.1330,1.0,27.34,2 
ENP,ioos.station.NOAA.NDBC:LBRF1:1,2017-05-02T11:00:00Z,25.4840,-81.1330,1.0,27.2,11111222 
ENP,ioos.station.NOAA.NDBC:LBRF1:1,2017-05-02T12:00:00Z,25.4840,-81.1330,1.0,27.1,11111222 
ENP,ioos.station.NOAA.NDBC:LBRF1:1,2017-05-02T13:00:00Z,25.4840,-81.1330,1.0,27.1,11111222 
ENP,ioos.station.NOAA.NDBC:LBRF1:1,2017-05-02T14:00:00Z,25.4840,-81.1330,1.0,27.2,11111222 
ENP,ioos.station.NOAA.NDBC:LBRF1:1,2017-05-02T15:00:00Z,25.4840,-81.1330,1.0,27.2,11111222 
ENP,ioos.station.NOAA.NDBC:LBRF1:1,2017-05-02T16:00:00Z,25.4840,-81.1330,1.0,27.4,11111222 
ENP,ioos.station.NOAA.NDBC:LBRF1:1,2017-05-02T17:00:00Z,25.4840,-81.1330,1.0,27.63,2 
ENP,ioos.station.NOAA.NDBC:LBRF1:1,2017-05-02T18:00:00Z,25.4840,-81.1330,1.0,27.9,11111222 
ENP,ioos.station.NOAA.NDBC:LBRF1:1,2017-05-02T19:00:00Z,25.4840,-81.1330,1.0,28.2,11111222 
ENP,ioos.station.NOAA.NDBC:LBRF1:1,2017-05-02T20:00:00Z,25.4840,-81.1330,1.0,28.2,11111222 
ENP,ioos.station.NOAA.NDBC:LBRF1:1,2017-05-02T21:00:00Z,25.4840,-81.1330,1.0,28.5,11111222 
ENP,ioos.station.NOAA.NDBC:LBRF1:1,2017-05-02T22:00:00Z,25.4840,-81.1330,1.0,28.7,11111222 
ENP,ioos.station.NOAA.NDBC:LBRF1:1,2017-05-02T23:00:00Z,25.4840,-81.1330,1.0,28.5,11111222 
ENP,ioos.station.NOAA.NDBC:LBRF1:1,2017-05-03T00:00:00Z,25.4840,-81.1330,1.0,28.9,2 
ENP,ioos.station.NOAA.NDBC:LBRF1:1,2017-05-03T03:00:00Z,25.4840,-81.1330,1.0,28.9,11111222 
ENP,ioos.station.NOAA.NDBC:LBRF1:1,2017-05-03T06:00:00Z,25.4840,-81.1330,1.0,28.0,2 
ENP,ioos.station.NOAA.NDBC:LBRF1:1,2017-05-03T07:00:00Z,25.4840,-81.1330,1.0,27.8,11111222 
ENP,ioos.station.NOAA.NDBC:LBRF1:1,2017-05-03T08:00:00Z,25.4840,-81.1330,1.0,27.48,2 
ENP,ioos.station.NOAA.NDBC:LBRF1:1,2017-05-03T10:00:00Z,25.4840,-81.1330,1.0,27.4,11111222 
ENP,ioos.station.NOAA.NDBC:LBRF1:1,2017-05-03T11:00:00Z,25.4840,-81.1330,1.0,27.4,11111222 
ENP,ioos.station.NOAA.NDBC:LBRF1:1,2017-05-03T12:00:00Z,25.4840,-81.1330,1.0,27.3,11111222 
ENP,ioos.station.NOAA.NDBC:LBRF1:1,2017-05-03T13:00:00Z,25.4840,-81.1330,1.0,27.4,11111222 
ENP,ioos.station.NOAA.NDBC:LBRF1:1,2017-05-03T14:00:00Z,25.4840,-81.1330,1.0,27.42,2 
ENP,ioos.station.NOAA.NDBC:LBRF1:1,2017-05-03T15:00:00Z,25.4840,-81.1330,1.0,27.4,11111222 
ENP,ioos.station.NOAA.NDBC:LBRF1:1,2017-05-03T16:00:00Z,25.4840,-81.1330,1.0,27.4,11111222 
ENP,ioos.station.NOAA.NDBC:LBRF1:1,2017-05-03T17:00:00Z,25.4840,-81.1330,1.0,27.8,11111222 
ENP,ioos.station.NOAA.NDBC:LBRF1:1,2017-05-03T18:00:00Z,25.4840,-81.1330,1.0,28.0,11111222 
ENP,ioos.station.NOAA.NDBC:LBRF1:1,2017-05-03T19:00:00Z,25.4840,-81.1330,1.0,28.14,2 
ENP,ioos.station.NOAA.NDBC:LBRF1:1,2017-05-03T20:00:00Z,25.4840,-81.1330,1.0,28.2,11111222 
ENP,ioos.station.NOAA.NDBC:LBRF1:1,2017-05-03T21:00:00Z,25.4840,-81.1330,1.0,28.4,11111222 
ENP,ioos.station.NOAA.NDBC:LBRF1:1,2017-05-03T22:00:00Z,25.4840,-81.1330,1.0,28.4,11111222 
ENP,ioos.station.NOAA.NDBC:LBRF1:1,2017-05-03T23:00:00Z,25.4840,-81.1330,1.0,28.4,11111222 
ENP,ioos.station.NOAA.NDBC:LBRF1:1,2017-05-04T00:00:00Z,25.4840,-81.1330,1.0,28.4,11111222 
ENP,ioos.station.NOAA.NDBC:LBRF1:1,2017-05-04T03:00:00Z,25.4840,-81.1330,1.0,28.82,2 
ENP,ioos.station.NOAA.NDBC:LBRF1:1,2017-05-04T06:00:00Z,25.4840,-81.1330,1.0,28.14,2 
ENP,ioos.station.NOAA.NDBC:LBRF1:1,2017-05-04T07:00:00Z,25.4840,-81.1330,1.0,27.97,2 
ENP,ioos.station.NOAA.NDBC:LBRF1:1,2017-05-04T08:00:00Z,25.4840,-81.1330,1.0,27.85,2 
ENP,ioos.station.NOAA.NDBC:LBRF1:1,2017-05-04T10:00:00Z,25.4840,-81.1330,1.0,27.9,11111222 
ENP,ioos.station.NOAA.NDBC:LBRF1:1,2017-05-04T11:00:00Z,25.4840,-81.1330,1.0,27.9,11111222 
ENP,ioos.station.NOAA.NDBC:LBRF1:1,2017-05-04T12:00:00Z,25.4840,-81.1330,1.0,27.86,2 
ENP,ioos.station.NOAA.NDBC:LBRF1:1,2017-05-04T13:00:00Z,25.4840,-81.1330,1.0,27.7,11111222 
ENP,ioos.station.NOAA.NDBC:LBRF1:1,2017-05-04T14:00:00Z,25.4840,-81.1330,1.0,27.66,2 
ENP,ioos.station.NOAA.NDBC:LBRF1:1,2017-05-04T15:00:00Z,25.4840,-81.1330,1.0,27.83,2 
ENP,ioos.station.NOAA.NDBC:LBRF1:1,2017-05-04T16:00:00Z,25.4840,-81.1330,1.0,28.1,11111222 
ENP,ioos.station.NOAA.NDBC:LBRF1:1,2017-05-04T17:00:00Z,25.4840,-81.1330,1.0,28.16,2 
ENP,ioos.station.NOAA.NDBC:LBRF1:1,2017-05-04T18:00:00Z,25.4840,-81.1330,1.0,28.2,11111222 
ENP,ioos.station.NOAA.NDBC:LBRF1:1,2017-05-04T19:00:00Z,25.4840,-81.1330,1.0,28.9,11111222 
ENP,ioos.station.NOAA.NDBC:LBRF1:1,2017-05-04T20:00:00Z,25.4840,-81.1330,1.0,28.7,11111222 
ENP,ioos.station.NOAA.NDBC:LBRF1:1,2017-05-04T21:00:00Z,25.4840,-81.1330,1.0,28.7,11111222 
ENP,ioos.station.NOAA.NDBC:LBRF1:1,2017-05-04T22:00:00Z,25.4840,-81.1330,1.0,28.7,11111222 
ENP,ioos.station.NOAA.NDBC:LBRF1:1,2017-05-04T23:00:00Z,25.4840,-81.1330,1.0,28.7,11111222 
ENP,ioos.station.NOAA.NDBC:LBRF1:1,2017-05-05T00:00:00Z,25.4840,-81.1330,1.0,28.7,11111222 
ENP,ioos.station.NOAA.NDBC:LBRF1:1,2017-05-05T03:00:00Z,25.4840,-81.1330,1.0,28.8,11111222 
ENP,ioos.station.NOAA.NDBC:LBRF1:1,2017-05-05T06:00:00Z,25.4840,-81.1330,1.0,28.76,2 
ENP,ioos.station.NOAA.NDBC:LBRF1:1,2017-05-05T07:00:00Z,25.4840,-81.1330,1.0,28.5,11111222 
ENP,ioos.station.NOAA.NDBC:LBRF1:1,2017-05-05T08:00:00Z,25.4840,-81.1330,1.0,28.3,11111222 
ENP,ioos.station.NOAA.NDBC:LBRF1:1,2017-05-05T10:00:00Z,25.4840,-81.1330,1.0,28.08,2 
ENP,ioos.station.NOAA.NDBC:LBRF1:1,2017-05-05T11:00:00Z,25.4840,-81.1330,1.0,28.05,2 
ENP,ioos.station.NOAA.NDBC:LBRF1:1,2017-05-05T12:00:00Z,25.4840,-81.1330,1.0,28.0,11111222 
ENP,ioos.station.NOAA.NDBC:LBRF1:1,2017-05-05T13:00:00Z,25.4840,-81.1330,1.0,27.95,2 
ENP,ioos.station.NOAA.NDBC:LBRF1:1,2017-05-05T14:00:00Z,25.4840,-81.1330,1.0,27.95,2 
ENP,ioos.station.NOAA.NDBC:LBRF1:1,2017-05-05T15:00:00Z,25.4840,-81.1330,1.0,27.57,2 
ENP,ioos.station.NOAA.NDBC:LBRF1:1,2017-05-05T16:00:00Z,25.4840,-81.1330,1.0,27.47,2 
ENP,ioos.station.NOAA.NDBC:LBRF1:1,2017-05-05T17:00:00Z,25.4840,-81.1330,1.0,27.4,11111222 
ENP,ioos.station.NOAA.NDBC:LBRF1:1,2017-05-05T18:00:00Z,25.4840,-81.1330,1.0,27.4,11111222 
ENP,ioos.station.NOAA.NDBC:LBRF1:1,2017-05-05T19:00:00Z,25.4840,-81.1330,1.0,27.48,2 
ENP,ioos.station.NOAA.NDBC:LBRF1:1,2017-05-05T20:00:00Z,25.4840,-81.1330,1.0,27.7,11111222 
ENP,ioos.station.NOAA.NDBC:LBRF1:1,2017-05-05T21:00:00Z,25.4840,-81.1330,1.0,27.9,11111222 
ENP,ioos.station.NOAA.NDBC:LBRF1:1,2017-05-05T22:00:00Z,25.4840,-81.1330,1.0,27.9,11111222 
ENP,ioos.station.NOAA.NDBC:LBRF1:1,2017-05-05T23:00:00Z,25.4840,-81.1330,1.0,28.0,11111222 
ENP,ioos.station.NOAA.NDBC:LBRF1:1,2017-05-06T00:00:00Z,25.4840,-81.1330,1.0,28.0,11111222 
ENP,ioos.station.NOAA.NDBC:LBRF1:1,2017-05-06T03:00:00Z,25.4840,-81.1330,1.0,27.6,11111222 
ENP,ioos.station.NOAA.NDBC:LBRF1:1,2017-05-06T06:00:00Z,25.4840,-81.1330,1.0,26.59,2 
ENP,ioos.station.NOAA.NDBC:LBRF1:1,2017-05-06T07:00:00Z,25.4840,-81.1330,1.0,26.4,11111222 
ENP,ioos.station.NOAA.NDBC:LBRF1:1,2017-05-06T08:00:00Z,25.4840,-81.1330,1.0,26.4,11111222 
ENP,ioos.station.NOAA.NDBC:LBRF1:1,2017-05-06T10:00:00Z,25.4840,-81.1330,1.0,26.67,2 
ENP,ioos.station.NOAA.NDBC:LBRF1:1,2017-05-06T11:00:00Z,25.4840,-81.1330,1.0,26.78,2 
ENP,ioos.station.NOAA.NDBC:LBRF1:1,2017-05-06T12:00:00Z,25.4840,-81.1330,1.0,26.82,2 
ENP,ioos.station.NOAA.NDBC:LBRF1:1,2017-05-06T13:00:00Z,25.4840,-81.1330,1.0,26.88,2 
ENP,ioos.station.NOAA.NDBC:LBRF1:1,2017-05-06T14:00:00Z,25.4840,-81.1330,1.0,26.91,2 
ENP,ioos.station.NOAA.NDBC:LBRF1:1,2017-05-06T15:00:00Z,25.4840,-81.1330,1.0,26.94,2 
ENP,ioos.station.NOAA.NDBC:LBRF1:1,2017-05-06T16:00:00Z,25.4840,-81.1330,1.0,26.96,2 
ENP,ioos.station.NOAA.NDBC:LBRF1:1,2017-05-06T17:00:00Z,25.4840,-81.1330,1.0,26.91,2 
ENP,ioos.station.NOAA.NDBC:LBRF1:1,2017-05-06T18:00:00Z,25.4840,-81.1330,1.0,26.91,2 
ENP,ioos.station.NOAA.NDBC:LBRF1:1,2017-05-06T19:00:00Z,25.4840,-81.1330,1.0,26.9,11111222 
ENP,ioos.station.NOAA.NDBC:LBRF1:1,2017-05-06T20:00:00Z,25.4840,-81.1330,1.0,27.3,11111222 
ENP,ioos.station.NOAA.NDBC:LBRF1:1,2017-05-06T21:00:00Z,25.4840,-81.1330,1.0,27.5,11111222 
ENP,ioos.station.NOAA.NDBC:LBRF1:1,2017-05-06T22:00:00Z,25.4840,-81.1330,1.0,27.6,11111222 
ENP,ioos.station.NOAA.NDBC:LBRF1:1,2017-05-06T23:00:00Z,25.4840,-81.1330,1.0,27.5,11111222 
ENP,ioos.station.NOAA.NDBC:LBRF1:1,2017-05-07T00:00:00Z,25.4840,-81.1330,1.0,27.24,2 
ENP,ioos.station.NOAA.NDBC:LBRF1:1,2017-05-07T03:00:00Z,25.4840,-81.1330,1.0,27.09,2 
ENP,ioos.station.NOAA.NDBC:LBRF1:1,2017-05-07T06:00:00Z,25.4840,-81.1330,1.0,26.08,2 
ENP,ioos.station.NOAA.NDBC:LBRF1:1,2017-05-07T08:00:00Z,25.4840,-81.1330,1.0,26.01,2 
ENP,ioos.station.NOAA.NDBC:LBRF1:1,2017-05-07T11:00:00Z,25.4840,-81.1330,1.0,26.4,11111222 
ENP,ioos.station.NOAA.NDBC:LBRF1:1,2017-05-07T12:00:00Z,25.4840,-81.1330,1.0,26.3,11111222 
ENP,ioos.station.NOAA.NDBC:LBRF1:1,2017-05-07T13:00:00Z,25.4840,-81.1330,1.0,26.2,11111222 
ENP,ioos.station.NOAA.NDBC:LBRF1:1,2017-05-07T14:00:00Z,25.4840,-81.1330,1.0,26.2,11111222 
ENP,ioos.station.NOAA.NDBC:LBRF1:1,2017-05-07T15:00:00Z,25.4840,-81.1330,1.0,26.4,11111222 
ENP,ioos.station.NOAA.NDBC:LBRF1:1,2017-05-07T16:00:00Z,25.4840,-81.1330,1.0,26.5,11111222 
ENP,ioos.station.NOAA.NDBC:LBRF1:1,2017-05-07T17:00:00Z,25.4840,-81.1330,1.0,26.2,11111222 
ENP,ioos.station.NOAA.NDBC:LBRF1:1,2017-05-07T18:00:00Z,25.4840,-81.1330,1.0,25.6,11111222 
ENP,ioos.station.NOAA.NDBC:LBRF1:1,2017-05-07T19:00:00Z,25.4840,-81.1330,1.0,25.5,11111222 
ENP,ioos.station.NOAA.NDBC:LBRF1:1,2017-05-07T20:00:00Z,25.4840,-81.1330,1.0,25.9,11111222 
ENP,ioos.station.NOAA.NDBC:LBRF1:1,2017-05-07T21:00:00Z,25.4840,-81.1330,1.0,26.7,11111222 
ENP,ioos.station.NOAA.NDBC:LBRF1:1,2017-05-07T22:00:00Z,25.4840,-81.1330,1.0,27.2,11111222 
ENP,ioos.station.NOAA.NDBC:LBRF1:1,2017-05-07T23:00:00Z,25.4840,-81.1330,1.0,27.2,11111222 
ENP,ioos.station.NOAA.NDBC:LBRF1:1,2017-05-08T00:00:00Z,25.4840,-81.1330,1.0,27.1,11111222 
ENP,ioos.station.NOAA.NDBC:LBRF1:1,2017-05-08T03:00:00Z,25.4840,-81.1330,1.0,27.0,11111222 
ENP,ioos.station.NOAA.NDBC:LBRF1:1,2017-05-08T06:00:00Z,25.4840,-81.1330,1.0,25.9,11111222 
ENP,ioos.station.NOAA.NDBC:LBRF1:1,2017-05-08T07:00:00Z,25.4840,-81.1330,1.0,25.4,11111222 
ENP,ioos.station.NOAA.NDBC:LBRF1:1,2017-05-08T08:00:00Z,25.4840,-81.1330,1.0,24.7,11111222 
ENP,ioos.station.NOAA.NDBC:LBRF1:1,2017-05-08T10:00:00Z,25.4840,-81.1330,1.0,26.25,2 
ENP,ioos.station.NOAA.NDBC:LBRF1:1,2017-05-08T11:00:00Z,25.4840,-81.1330,1.0,26.3,2 
ENP,ioos.station.NOAA.NDBC:LBRF1:1,2017-05-08T12:00:00Z,25.4840,-81.1330,1.0,26.3,11111222 
ENP,ioos.station.NOAA.NDBC:LBRF1:1,2017-05-08T13:00:00Z,25.4840,-81.1330,1.0,26.2,11111222 
ENP,ioos.station.NOAA.NDBC:LBRF1:1,2017-05-08T14:00:00Z,25.4840,-81.1330,1.0,26.2,11111222 
ENP,ioos.station.NOAA.NDBC:LBRF1:1,2017-05-08T15:00:00Z,25.4840,-81.1330,1.0,26.3,11111222 
ENP,ioos.station.NOAA.NDBC:LBRF1:1,2017-05-08T16:00:00Z,25.4840,-81.1330,1.0,26.6,11111222 
ENP,ioos.station.NOAA.NDBC:LBRF1:1,2017-05-08T17:00:00Z,25.4840,-81.1330,1.0,26.3,11111222 
ENP,ioos.station.NOAA.NDBC:LBRF1:1,2017-05-08T18:00:00Z,25.4840,-81.1330,1.0,25.7,11111222 
ENP,ioos.station.NOAA.NDBC:LBRF1:1,2017-05-08T19:00:00Z,25.4840,-81.1330,1.0,25.6,11111222 
ENP,ioos.station.NOAA.NDBC:LBRF1:1,2017-05-08T20:00:00Z,25.4840,-81.1330,1.0,25.6,11111222 
ENP,ioos.station.NOAA.NDBC:LBRF1:1,2017-05-08T21:00:00Z,25.4840,-81.1330,1.0,25.95,2 
ENP,ioos.station.NOAA.NDBC:LBRF1:1,2017-05-08T22:00:00Z,25.4840,-81.1330,1.0,26.4,11111222 
ENP,ioos.station.NOAA.NDBC:LBRF1:1,2017-05-08T23:00:00Z,25.4840,-81.1330,1.0,27.1,11111222 
ENP,ioos.station.NOAA.NDBC:LBRF1:1,2017-05-09T00:00:00Z,25.4840,-81.1330,1.0,27.3,11111222 
ENP,ioos.station.NOAA.NDBC:LBRF1:1,2017-05-09T06:00:00Z,25.4840,-81.1330,1.0,25.92,2 
ENP,ioos.station.NOAA.NDBC:LBRF1:1,2017-05-09T07:00:00Z,25.4840,-81.1330,1.0,25.49,2 
ENP,ioos.station.NOAA.NDBC:LBRF1:1,2017-05-09T08:00:00Z,25.4840,-81.1330,1.0,25.46,2 
ENP,ioos.station.NOAA.NDBC:LBRF1:1,2017-05-09T10:00:00Z,25.4840,-81.1330,1.0,25.38,2 
ENP,ioos.station.NOAA.NDBC:LBRF1:1,2017-05-09T11:00:00Z,25.4840,-81.1330,1.0,25.75,2 
ENP,ioos.station.NOAA.NDBC:LBRF1:1,2017-05-09T12:00:00Z,25.4840,-81.1330,1.0,26.4,11111222 
ENP,ioos.station.NOAA.NDBC:LBRF1:1,2017-05-09T13:00:00Z,25.4840,-81.1330,1.0,26.52,2 
ENP,ioos.station.NOAA.NDBC:LBRF1:1,2017-05-09T14:00:00Z,25.4840,-81.1330,1.0,26.64,2 
ENP,ioos.station.NOAA.NDBC:LBRF1:1,2017-05-09T15:00:00Z,25.4840,-81.1330,1.0,26.7,2 
ENP,ioos.station.NOAA.NDBC:LBRF1:1,2017-05-09T17:00:00Z,25.4840,-81.1330,1.0,26.1,2 
ENP,ioos.station.NOAA.NDBC:LBRF1:1,2017-05-09T18:00:00Z,25.4840,-81.1330,1.0,26.22,2 
ENP,ioos.station.NOAA.NDBC:LBRF1:1,2017-05-09T19:00:00Z,25.4840,-81.1330,1.0,26.29,2 
ENP,ioos.station.NOAA.NDBC:LBRF1:1,2017-05-09T20:00:00Z,25.4840,-81.1330,1.0,26.41,2 
ENP,ioos.station.NOAA.NDBC:LBRF1:1,2017-05-09T21:00:00Z,25.4840,-81.1330,1.0,26.7,11111222 
ENP,ioos.station.NOAA.NDBC:LBRF1:1,2017-05-09T22:00:00Z,25.4840,-81.1330,1.0,26.7,11111222 
ENP,ioos.station.NOAA.NDBC:LBRF1:1,2017-05-09T23:00:00Z,25.4840,-81.1330,1.0,26.8,11111222 
ENP,ioos.station.NOAA.NDBC:LBRF1:1,2017-05-10T00:00:00Z,25.4840,-81.1330,1.0,26.9,11111222 
ENP,ioos.station.NOAA.NDBC:LBRF1:1,2017-05-10T06:00:00Z,25.4840,-81.1330,1.0,26.88,2 
ENP,ioos.station.NOAA.NDBC:LBRF1:1,2017-05-10T07:00:00Z,25.4840,-81.1330,1.0,26.21,2 
ENP,ioos.station.NOAA.NDBC:LBRF1:1,2017-05-10T08:00:00Z,25.4840,-81.1330,1.0,26.16,2 
ENP,ioos.station.NOAA.NDBC:LBRF1:1,2017-05-10T10:00:00Z,25.4840,-81.1330,1.0,26.04,2 
ENP,ioos.station.NOAA.NDBC:LBRF1:1,2017-05-10T11:00:00Z,25.4840,-81.1330,1.0,26.13,2 
ENP,ioos.station.NOAA.NDBC:LBRF1:1,2017-05-10T12:00:00Z,25.4840,-81.1330,1.0,26.6,11111222 
ENP,ioos.station.NOAA.NDBC:LBRF1:1,2017-05-10T15:00:00Z,25.4840,-81.1330,1.0,27.4,11111222 
ENP,ioos.station.NOAA.NDBC:LBRF1:1,2017-05-10T16:00:00Z,25.4840,-81.1330,1.0,27.55,2 
ENP,ioos.station.NOAA.NDBC:LBRF1:1,2017-05-10T17:00:00Z,25.4840,-81.1330,1.0,27.09,2 
ENP,ioos.station.NOAA.NDBC:LBRF1:1,2017-05-10T18:00:00Z,25.4840,-81.1330,1.0,27.13,2 
ENP,ioos.station.NOAA.NDBC:LBRF1:1,2017-05-10T19:00:00Z,25.4840,-81.1330,1.0,27.29,2 
ENP,ioos.station.NOAA.NDBC:LBRF1:1,2017-05-10T20:00:00Z,25.4840,-81.1330,1.0,27.38,2 
ENP,ioos.station.NOAA.NDBC:LBRF1:1,2017-05-10T21:00:00Z,25.4840,-81.1330,1.0,27.5,11111222 
ENP,ioos.station.NOAA.NDBC:LBRF1:1,2017-05-10T22:00:00Z,25.4840,-81.1330,1.0,27.6,11111222 
ENP,ioos.station.NOAA.NDBC:LBRF1:1,2017-05-10T23:00:00Z,25.4840,-81.1330,1.0,27.6,11111222 
ENP,ioos.station.NOAA.NDBC:LBRF1:1,2017-05-11T00:00:00Z,25.4840,-81.1330,1.0,27.56,2 
ENP,ioos.station.NOAA.NDBC:LBRF1:1,2017-05-11T03:00:00Z,25.4840,-81.1330,1.0,28.18,2 
ENP,ioos.station.NOAA.NDBC:LBRF1:1,2017-05-11T06:00:00Z,25.4840,-81.1330,1.0,27.57,2 
ENP,ioos.station.NOAA.NDBC:LBRF1:1,2017-05-11T07:00:00Z,25.4840,-81.1330,1.0,27.0,2 
ENP,ioos.station.NOAA.NDBC:LBRF1:1,2017-05-11T08:00:00Z,25.4840,-81.1330,1.0,26.95,2 
ENP,ioos.station.NOAA.NDBC:LBRF1:1,2017-05-11T10:00:00Z,25.4840,-81.1330,1.0,26.94,2 
ENP,ioos.station.NOAA.NDBC:LBRF1:1,2017-05-11T11:00:00Z,25.4840,-81.1330,1.0,26.77,2 
ENP,ioos.station.NOAA.NDBC:LBRF1:1,2017-05-11T12:00:00Z,25.4840,-81.1330,1.0,26.8,11111222 
ENP,ioos.station.NOAA.NDBC:LBRF1:1,2017-05-11T13:00:00Z,25.4840,-81.1330,1.0,27.05,2 
ENP,ioos.station.NOAA.NDBC:LBRF1:1,2017-05-11T15:00:00Z,25.4840,-81.1330,1.0,27.81,2 
ENP,ioos.station.NOAA.NDBC:LBRF1:1,2017-05-11T16:00:00Z,25.4840,-81.1330,1.0,27.81,2 
ENP,ioos.station.NOAA.NDBC:LBRF1:1,2017-05-11T17:00:00Z,25.4840,-81.1330,1.0,27.94,2 
ENP,ioos.station.NOAA.NDBC:LBRF1:1,2017-05-11T18:00:00Z,25.4840,-81.1330,1.0,27.7,2 
ENP,ioos.station.NOAA.NDBC:LBRF1:1,2017-05-11T19:00:00Z,25.4840,-81.1330,1.0,28.05,2 
ENP,ioos.station.NOAA.NDBC:LBRF1:1,2017-05-11T20:00:00Z,25.4840,-81.1330,1.0,28.15,2 
ENP,ioos.station.NOAA.NDBC:LBRF1:1,2017-05-11T21:00:00Z,25.4840,-81.1330,1.0,28.2,11111222 
ENP,ioos.station.NOAA.NDBC:LBRF1:1,2017-05-11T22:00:00Z,25.4840,-81.1330,1.0,28.3,11111222 
ENP,ioos.station.NOAA.NDBC:LBRF1:1,2017-05-11T23:00:00Z,25.4840,-81.1330,1.0,28.3,11111222 
ENP,ioos.station.NOAA.NDBC:LBRF1:1,2017-05-12T00:00:00Z,25.4840,-81.1330,1.0,28.19,2 
ENP,ioos.station.NOAA.NDBC:LBRF1:1,2017-05-12T03:00:00Z,25.4840,-81.1330,1.0,28.5,2 
ENP,ioos.station.NOAA.NDBC:LBRF1:1,2017-05-12T06:00:00Z,25.4840,-81.1330,1.0,28.32,2 
ENP,ioos.station.NOAA.NDBC:LBRF1:1,2017-05-12T07:00:00Z,25.4840,-81.1330,1.0,27.81,2 
ENP,ioos.station.NOAA.NDBC:LBRF1:1,2017-05-12T08:00:00Z,25.4840,-81.1330,1.0,27.33,2 
ENP,ioos.station.NOAA.NDBC:LBRF1:1,2017-05-12T10:00:00Z,25.4840,-81.1330,1.0,27.23,2 
ENP,ioos.station.NOAA.NDBC:LBRF1:1,2017-05-12T11:00:00Z,25.4840,-81.1330,1.0,27.1,2 
ENP,ioos.station.NOAA.NDBC:LBRF1:1,2017-05-12T12:00:00Z,25.4840,-81.1330,1.0,27.1,11111222 
ENP,ioos.station.NOAA.NDBC:LBRF1:1,2017-05-12T13:00:00Z,25.4840,-81.1330,1.0,27.33,2 
ENP,ioos.station.NOAA.NDBC:LBRF1:1,2017-05-12T14:00:00Z,25.4840,-81.1330,1.0,27.77,2 
ENP,ioos.station.NOAA.NDBC:LBRF1:1,2017-05-12T15:00:00Z,25.4840,-81.1330,1.0,28.11,2 
ENP,ioos.station.NOAA.NDBC:LBRF1:1,2017-05-12T16:00:00Z,25.4840,-81.1330,1.0,28.09,2 
ENP,ioos.station.NOAA.NDBC:LBRF1:1,2017-05-12T17:00:00Z,25.4840,-81.1330,1.0,28.04,2 
ENP,ioos.station.NOAA.NDBC:LBRF1:1,2017-05-12T18:00:00Z,25.4840,-81.1330,1.0,27.99,2 
ENP,ioos.station.NOAA.NDBC:LBRF1:1,2017-05-12T19:00:00Z,25.4840,-81.1330,1.0,28.41,2 
ENP,ioos.station.NOAA.NDBC:LBRF1:1,2017-05-12T20:00:00Z,25.4840,-81.1330,1.0,28.48,2 
ENP,ioos.station.NOAA.NDBC:LBRF1:1,2017-05-12T21:00:00Z,25.4840,-81.1330,1.0,28.6,11111222 
ENP,ioos.station.NOAA.NDBC:LBRF1:1,2017-05-12T22:00:00Z,25.4840,-81.1330,1.0,28.7,11111222 
ENP,ioos.station.NOAA.NDBC:LBRF1:1,2017-05-12T23:00:00Z,25.4840,-81.1330,1.0,28.6,11111222 
ENP,ioos.station.NOAA.NDBC:LBRF1:1,2017-05-13T00:00:00Z,25.4840,-81.1330,1.0,28.5,11111222 
ENP,ioos.station.NOAA.NDBC:LBRF1:1,2017-05-13T06:00:00Z,25.4840,-81.1330,1.0,28.5,11111222 
ENP,ioos.station.NOAA.NDBC:LBRF1:1,2017-05-13T07:00:00Z,25.4840,-81.1330,1.0,28.2,11111222 
ENP,ioos.station.NOAA.NDBC:LBRF1:1,2017-05-13T08:00:00Z,25.4840,-81.1330,1.0,27.8,11111222 
ENP,ioos.station.NOAA.NDBC:LBRF1:1,2017-05-13T10:00:00Z,25.4840,-81.1330,1.0,27.6,11111222 
ENP,ioos.station.NOAA.NDBC:LBRF1:1,2017-05-13T11:00:00Z,25.4840,-81.1330,1.0,27.5,11111222 
ENP,ioos.station.NOAA.NDBC:LBRF1:1,2017-05-13T12:00:00Z,25.4840,-81.1330,1.0,27.5,11111222 
ENP,ioos.station.NOAA.NDBC:LBRF1:1,2017-05-13T13:00:00Z,25.4840,-81.1330,1.0,27.5,11111222 
ENP,ioos.station.NOAA.NDBC:LBRF1:1,2017-05-13T14:00:00Z,25.4840,-81.1330,1.0,27.6,11111222 
ENP,ioos.station.NOAA.NDBC:LBRF1:1,2017-05-13T15:00:00Z,25.4840,-81.1330,1.0,27.9,11111222 
ENP,ioos.station.NOAA.NDBC:LBRF1:1,2017-05-13T16:00:00Z,25.4840,-81.1330,1.0,28.0,11111222 
ENP,ioos.station.NOAA.NDBC:LBRF1:1,2017-05-13T17:00:00Z,25.4840,-81.1330,1.0,28.3,11111222 
ENP,ioos.station.NOAA.NDBC:LBRF1:1,2017-05-13T18:00:00Z,25.4840,-81.1330,1.0,28.3,11111222 
ENP,ioos.station.NOAA.NDBC:LBRF1:1,2017-05-13T19:00:00Z,25.4840,-81.1330,1.0,28.6,11111222 
ENP,ioos.station.NOAA.NDBC:LBRF1:1,2017-05-13T20:00:00Z,25.4840,-81.1330,1.0,28.7,11111222 
ENP,ioos.station.NOAA.NDBC:LBRF1:1,2017-05-13T21:00:00Z,25.4840,-81.1330,1.0,28.9,11111222 
ENP,ioos.station.NOAA.NDBC:LBRF1:1,2017-05-13T22:00:00Z,25.4840,-81.1330,1.0,28.8,11111222 
ENP,ioos.station.NOAA.NDBC:LBRF1:1,2017-05-13T23:00:00Z,25.4840,-81.1330,1.0,28.9,11111222 
ENP,ioos.station.NOAA.NDBC:LBRF1:1,2017-05-14T00:00:00Z,25.4840,-81.1330,1.0,28.9,11111222 
ENP,ioos.station.NOAA.NDBC:LBRF1:1,2017-05-14T03:00:00Z,25.4840,-81.1330,1.0,28.4,11111222 
ENP,ioos.station.NOAA.NDBC:LBRF1:1,2017-05-14T06:00:00Z,25.4840,-81.1330,1.0,28.2,11111222 
ENP,ioos.station.NOAA.NDBC:LBRF1:1,2017-05-14T07:00:00Z,25.4840,-81.1330,1.0,28.1,11111222 
ENP,ioos.station.NOAA.NDBC:LBRF1:1,2017-05-14T08:00:00Z,25.4840,-81.1330,1.0,28.0,11111222 
ENP,ioos.station.NOAA.NDBC:LBRF1:1,2017-05-14T10:00:00Z,25.4840,-81.1330,1.0,27.3,11111222 
ENP,ioos.station.NOAA.NDBC:LBRF1:1,2017-05-14T11:00:00Z,25.4840,-81.1330,1.0,27.3,11111222 
ENP,ioos.station.NOAA.NDBC:LBRF1:1,2017-05-14T12:00:00Z,25.4840,-81.1330,1.0,27.3,11111222 
ENP,ioos.station.NOAA.NDBC:LBRF1:1,2017-05-14T13:00:00Z,25.4840,-81.1330,1.0,27.31,2 
ENP,ioos.station.NOAA.NDBC:LBRF1:1,2017-05-14T14:00:00Z,25.4840,-81.1330,1.0,27.38,2 
ENP,ioos.station.NOAA.NDBC:LBRF1:1,2017-05-14T15:00:00Z,25.4840,-81.1330,1.0,27.64,2 
ENP,ioos.station.NOAA.NDBC:LBRF1:1,2017-05-14T16:00:00Z,25.4840,-81.1330,1.0,27.86,2 
ENP,ioos.station.NOAA.NDBC:LBRF1:1,2017-05-14T17:00:00Z,25.4840,-81.1330,1.0,27.96,2 
ENP,ioos.station.NOAA.NDBC:LBRF1:1,2017-05-14T18:00:00Z,25.4840,-81.1330,1.0,27.88,2 
ENP,ioos.station.NOAA.NDBC:LBRF1:1,2017-05-14T19:00:00Z,25.4840,-81.1330,1.0,27.81,2 
ENP,ioos.station.NOAA.NDBC:LBRF1:1,2017-05-14T20:00:00Z,25.4840,-81.1330,1.0,27.96,2 
ENP,ioos.station.NOAA.NDBC:LBRF1:1,2017-05-14T21:00:00Z,25.4840,-81.1330,1.0,28.0,11111222 
ENP,ioos.station.NOAA.NDBC:LBRF1:1,2017-05-14T22:00:00Z,25.4840,-81.1330,1.0,28.0,11111222 
ENP,ioos.station.NOAA.NDBC:LBRF1:1,2017-05-14T23:00:00Z,25.4840,-81.1330,1.0,28.0,11111222 
ENP,ioos.station.NOAA.NDBC:LBRF1:1,2017-05-15T00:00:00Z,25.4840,-81.1330,1.0,28.0,11111222 
ENP,ioos.station.NOAA.NDBC:LBRF1:1,2017-05-15T03:00:00Z,25.4840,-81.1330,1.0,28.03,2 
ENP,ioos.station.NOAA.NDBC:LBRF1:1,2017-05-15T06:00:00Z,25.4840,-81.1330,1.0,28.2,2 
ENP,ioos.station.NOAA.NDBC:LBRF1:1,2017-05-15T07:00:00Z,25.4840,-81.1330,1.0,28.2,2 
ENP,ioos.station.NOAA.NDBC:LBRF1:1,2017-05-15T08:00:00Z,25.4840,-81.1330,1.0,28.05,2 
ENP,ioos.station.NOAA.NDBC:LBRF1:1,2017-05-15T10:00:00Z,25.4840,-81.1330,1.0,27.37,2 
ENP,ioos.station.NOAA.NDBC:LBRF1:1,2017-05-15T11:00:00Z,25.4840,-81.1330,1.0,27.14,2 
ENP,ioos.station.NOAA.NDBC:LBRF1:1,2017-05-15T12:00:00Z,25.4840,-81.1330,1.0,27.0,11111222 
ENP,ioos.station.NOAA.NDBC:LBRF1:1,2017-05-15T13:00:00Z,25.4840,-81.1330,1.0,27.21,2 
ENP,ioos.station.NOAA.NDBC:LBRF1:1,2017-05-15T14:00:00Z,25.4840,-81.1330,1.0,27.56,2 
ENP,ioos.station.NOAA.NDBC:LBRF1:1,2017-05-15T15:00:00Z,25.4840,-81.1330,1.0,27.94,2 
ENP,ioos.station.NOAA.NDBC:LBRF1:1,2017-05-15T16:00:00Z,25.4840,-81.1330,1.0,28.22,2 
ENP,ioos.station.NOAA.NDBC:LBRF1:1,2017-05-15T17:00:00Z,25.4840,-81.1330,1.0,28.44,2 
ENP,ioos.station.NOAA.NDBC:LBRF1:1,2017-05-15T18:00:00Z,25.4840,-81.1330,1.0,28.42,2 